Year,Month,Day,Hour,Minute,Value (Times are PST for temperature in C)
2016,05,31,00,00,14.30
2016,05,31,00,01,14.20
2016,05,31,00,02,14.20
2016,05,31,00,03,14.20
2016,05,31,00,04,14.10
2016,05,31,00,05,14.10
2016,05,31,00,06,14.10
2016,05,31,00,07,14.00
2016,05,31,00,08,14.00
2016,05,31,00,09,13.90
2016,05,31,00,10,13.90
2016,05,31,00,11,13.90
2016,05,31,00,12,13.80
2016,05,31,00,13,13.80
2016,05,31,00,14,13.80
2016,05,31,00,15,13.70
2016,05,31,00,16,13.70
2016,05,31,00,17,13.70
2016,05,31,00,18,13.70
2016,05,31,00,19,13.60
2016,05,31,00,20,13.60
2016,05,31,00,21,13.60
2016,05,31,00,22,13.50
2016,05,31,00,23,13.50
2016,05,31,00,24,13.40
2016,05,31,00,25,13.40
2016,05,31,00,26,13.40
2016,05,31,00,27,13.40
2016,05,31,00,28,13.30
2016,05,31,00,29,13.30
2016,05,31,00,30,13.30
2016,05,31,00,31,13.30
2016,05,31,00,32,13.20
2016,05,31,00,33,13.20
2016,05,31,00,34,13.20
2016,05,31,00,35,13.20
2016,05,31,00,36,13.20
2016,05,31,00,37,13.10
2016,05,31,00,38,13.10
2016,05,31,00,39,13.10
2016,05,31,00,40,13.10
2016,05,31,00,41,13.10
2016,05,31,00,42,13.10
2016,05,31,00,43,13.00
2016,05,31,00,44,13.00
2016,05,31,00,45,13.00
2016,05,31,00,46,12.90
2016,05,31,00,47,12.90
2016,05,31,00,48,12.80
2016,05,31,00,49,12.80
2016,05,31,00,50,12.80
2016,05,31,00,51,12.70
2016,05,31,00,52,12.70
2016,05,31,00,53,12.70
2016,05,31,00,54,12.70
2016,05,31,00,55,12.60
2016,05,31,00,56,12.60
2016,05,31,00,57,12.60
2016,05,31,00,58,12.60
2016,05,31,00,59,12.60
2016,05,31,01,00,12.70
2016,05,31,01,01,12.70
2016,05,31,01,02,12.70
2016,05,31,01,03,12.60
2016,05,31,01,04,12.60
2016,05,31,01,05,12.60
2016,05,31,01,06,12.60
2016,05,31,01,07,12.60
2016,05,31,01,08,12.60
2016,05,31,01,09,12.60
2016,05,31,01,10,12.50
2016,05,31,01,11,12.50
2016,05,31,01,12,12.50
2016,05,31,01,13,12.50
2016,05,31,01,14,12.50
2016,05,31,01,15,12.40
2016,05,31,01,16,12.40
2016,05,31,01,17,12.40
2016,05,31,01,18,12.40
2016,05,31,01,19,12.30
2016,05,31,01,20,12.30
2016,05,31,01,21,12.30
2016,05,31,01,22,12.30
2016,05,31,01,23,12.20
2016,05,31,01,24,12.20
2016,05,31,01,25,12.20
2016,05,31,01,26,12.10
2016,05,31,01,27,12.10
2016,05,31,01,28,12.10
2016,05,31,01,29,12.10
2016,05,31,01,30,12.00
2016,05,31,01,31,12.00
2016,05,31,01,32,12.00
2016,05,31,01,33,11.90
2016,05,31,01,34,11.90
2016,05,31,01,35,11.90
2016,05,31,01,36,11.80
2016,05,31,01,37,11.80
2016,05,31,01,38,11.80
2016,05,31,01,39,11.80
2016,05,31,01,40,11.70
2016,05,31,01,41,11.70
2016,05,31,01,42,11.70
2016,05,31,01,43,11.70
2016,05,31,01,44,11.70
2016,05,31,01,45,11.60
2016,05,31,01,46,11.60
2016,05,31,01,47,11.60
2016,05,31,01,48,11.60
2016,05,31,01,49,11.60
2016,05,31,01,50,11.60
2016,05,31,01,51,11.60
2016,05,31,01,52,11.60
2016,05,31,01,53,11.50
2016,05,31,01,54,11.50
2016,05,31,01,55,11.50
2016,05,31,01,56,11.40
2016,05,31,01,57,11.40
2016,05,31,01,58,11.40
2016,05,31,01,59,11.40
2016,05,31,02,00,11.40
2016,05,31,02,01,11.30
2016,05,31,02,02,11.30
2016,05,31,02,03,11.30
2016,05,31,02,04,11.30
2016,05,31,02,05,11.30
2016,05,31,02,06,11.20
2016,05,31,02,07,11.20
2016,05,31,02,08,11.20
2016,05,31,02,09,11.20
2016,05,31,02,10,11.20
2016,05,31,02,11,11.20
2016,05,31,02,12,11.10
2016,05,31,02,13,11.10
2016,05,31,02,14,11.10
2016,05,31,02,15,11.10
2016,05,31,02,16,11.10
2016,05,31,02,17,11.10
2016,05,31,02,18,11.10
2016,05,31,02,19,11.10
2016,05,31,02,20,11.00
2016,05,31,02,21,11.00
2016,05,31,02,22,11.00
2016,05,31,02,23,11.00
2016,05,31,02,24,11.00
2016,05,31,02,25,11.00
2016,05,31,02,26,11.00
2016,05,31,02,27,11.00
2016,05,31,02,28,11.00
2016,05,31,02,29,11.00
2016,05,31,02,30,10.90
2016,05,31,02,31,10.90
2016,05,31,02,32,10.90
2016,05,31,02,33,10.90
2016,05,31,02,34,10.90
2016,05,31,02,35,10.90
2016,05,31,02,36,10.90
2016,05,31,02,37,10.90
2016,05,31,02,38,10.80
2016,05,31,02,39,10.80
2016,05,31,02,40,10.80
2016,05,31,02,41,10.80
2016,05,31,02,42,10.80
2016,05,31,02,43,10.80
2016,05,31,02,44,10.70
2016,05,31,02,45,10.70
2016,05,31,02,46,10.70
2016,05,31,02,47,10.70
2016,05,31,02,48,10.70
2016,05,31,02,49,10.70
2016,05,31,02,50,10.60
2016,05,31,02,51,10.60
2016,05,31,02,52,10.60
2016,05,31,02,53,10.60
2016,05,31,02,54,10.60
2016,05,31,02,55,10.60
2016,05,31,02,56,10.60
2016,05,31,02,57,10.50
2016,05,31,02,58,10.50
2016,05,31,02,59,10.40
2016,05,31,03,00,10.40
2016,05,31,03,01,10.40
2016,05,31,03,02,10.40
2016,05,31,03,03,10.30
2016,05,31,03,04,10.30
2016,05,31,03,05,10.30
2016,05,31,03,06,10.30
2016,05,31,03,07,10.30
2016,05,31,03,08,10.30
2016,05,31,03,09,10.30
2016,05,31,03,10,10.30
2016,05,31,03,11,10.30
2016,05,31,03,12,10.30
2016,05,31,03,13,10.30
2016,05,31,03,14,10.30
2016,05,31,03,15,10.30
2016,05,31,03,16,10.30
2016,05,31,03,17,10.30
2016,05,31,03,18,10.30
2016,05,31,03,19,10.20
2016,05,31,03,20,10.20
2016,05,31,03,21,10.20
2016,05,31,03,22,10.20
2016,05,31,03,23,10.20
2016,05,31,03,24,10.20
2016,05,31,03,25,10.20
2016,05,31,03,26,10.20
2016,05,31,03,27,10.20
2016,05,31,03,28,10.20
2016,05,31,03,29,10.20
2016,05,31,03,30,10.20
2016,05,31,03,31,10.20
2016,05,31,03,32,10.20
2016,05,31,03,33,10.20
2016,05,31,03,34,10.20
2016,05,31,03,35,10.20
2016,05,31,03,36,10.10
2016,05,31,03,37,10.20
2016,05,31,03,38,10.10
2016,05,31,03,39,10.10
2016,05,31,03,40,10.10
2016,05,31,03,41,10.10
2016,05,31,03,42,10.10
2016,05,31,03,43,10.10
2016,05,31,03,44,10.10
2016,05,31,03,45,10.10
2016,05,31,03,46,10.10
2016,05,31,03,47,10.10
2016,05,31,03,48,10.00
2016,05,31,03,49,10.00
2016,05,31,03,50,10.00
2016,05,31,03,51,10.00
2016,05,31,03,52,10.00
2016,05,31,03,53,9.90
2016,05,31,03,54,9.90
2016,05,31,03,55,9.90
2016,05,31,03,56,9.90
2016,05,31,03,57,9.90
2016,05,31,03,58,9.90
2016,05,31,03,59,9.90
2016,05,31,04,00,9.80
2016,05,31,04,01,9.80
2016,05,31,04,02,9.80
2016,05,31,04,03,9.80
2016,05,31,04,04,9.70
2016,05,31,04,05,9.70
2016,05,31,04,06,9.70
2016,05,31,04,07,9.70
2016,05,31,04,08,9.60
2016,05,31,04,09,9.60
2016,05,31,04,10,9.60
2016,05,31,04,11,9.60
2016,05,31,04,12,9.60
2016,05,31,04,13,9.60
2016,05,31,04,14,9.50
2016,05,31,04,15,9.50
2016,05,31,04,16,9.50
2016,05,31,04,17,9.50
2016,05,31,04,18,9.50
2016,05,31,04,19,9.50
2016,05,31,04,20,9.50
2016,05,31,04,21,9.50
2016,05,31,04,22,9.50
2016,05,31,04,23,9.50
2016,05,31,04,24,9.50
2016,05,31,04,25,9.50
2016,05,31,04,26,9.50
2016,05,31,04,27,9.50
2016,05,31,04,28,9.50
2016,05,31,04,29,9.40
2016,05,31,04,30,9.40
2016,05,31,04,31,9.40
2016,05,31,04,32,9.40
2016,05,31,04,33,9.40
2016,05,31,04,34,9.40
2016,05,31,04,35,9.40
2016,05,31,04,36,9.40
2016,05,31,04,37,9.40
2016,05,31,04,38,9.40
2016,05,31,04,39,9.30
2016,05,31,04,40,9.40
2016,05,31,04,41,9.30
2016,05,31,04,42,9.30
2016,05,31,04,43,9.30
2016,05,31,04,44,9.30
2016,05,31,04,45,9.30
2016,05,31,04,46,9.30
2016,05,31,04,47,9.30
2016,05,31,04,48,9.30
2016,05,31,04,49,9.30
2016,05,31,04,50,9.30
2016,05,31,04,51,9.30
2016,05,31,04,52,9.30
2016,05,31,04,53,9.30
2016,05,31,04,54,9.30
2016,05,31,04,55,9.30
2016,05,31,04,56,9.30
2016,05,31,04,57,9.30
2016,05,31,04,58,9.30
2016,05,31,04,59,9.30
2016,05,31,05,00,9.30
2016,05,31,05,01,9.40
2016,05,31,05,02,9.30
2016,05,31,05,03,9.30
2016,05,31,05,04,9.30
2016,05,31,05,05,9.30
2016,05,31,05,06,9.30
2016,05,31,05,07,9.30
2016,05,31,05,08,9.30
2016,05,31,05,09,9.30
2016,05,31,05,10,9.30
2016,05,31,05,11,9.30
2016,05,31,05,12,9.30
2016,05,31,05,13,9.30
2016,05,31,05,14,9.30
2016,05,31,05,15,9.20
2016,05,31,05,16,9.20
2016,05,31,05,17,9.20
2016,05,31,05,18,9.20
2016,05,31,05,19,9.20
2016,05,31,05,20,9.20
2016,05,31,05,21,9.20
2016,05,31,05,22,9.20
2016,05,31,05,23,9.20
2016,05,31,05,24,9.20
2016,05,31,05,25,9.20
2016,05,31,05,26,9.20
2016,05,31,05,27,9.20
2016,05,31,05,28,9.20
2016,05,31,05,29,9.20
2016,05,31,05,30,9.20
2016,05,31,05,31,9.20
2016,05,31,05,32,9.20
2016,05,31,05,33,9.20
2016,05,31,05,34,9.20
2016,05,31,05,35,9.20
2016,05,31,05,36,9.20
2016,05,31,05,37,9.20
2016,05,31,05,38,9.20
2016,05,31,05,39,9.20
2016,05,31,05,40,9.20
2016,05,31,05,41,9.20
2016,05,31,05,42,9.20
2016,05,31,05,43,9.20
2016,05,31,05,44,9.20
2016,05,31,05,45,9.20
2016,05,31,05,46,9.20
2016,05,31,05,47,9.20
2016,05,31,05,48,9.30
2016,05,31,05,49,9.30
2016,05,31,05,50,9.30
2016,05,31,05,51,9.30
2016,05,31,05,52,9.30
2016,05,31,05,53,9.30
2016,05,31,05,54,9.30
2016,05,31,05,55,9.30
2016,05,31,05,56,9.30
2016,05,31,05,57,9.30
2016,05,31,05,58,9.40
2016,05,31,05,59,9.40
2016,05,31,06,00,9.40
2016,05,31,06,01,9.40
2016,05,31,06,02,9.40
2016,05,31,06,03,9.50
2016,05,31,06,04,9.50
2016,05,31,06,05,9.50
2016,05,31,06,06,9.50
2016,05,31,06,07,9.60
2016,05,31,06,08,9.60
2016,05,31,06,09,9.60
2016,05,31,06,10,9.60
2016,05,31,06,11,9.60
2016,05,31,06,12,9.60
2016,05,31,06,13,9.70
2016,05,31,06,14,9.70
2016,05,31,06,15,9.70
2016,05,31,06,16,9.70
2016,05,31,06,17,9.70
2016,05,31,06,18,9.70
2016,05,31,06,19,9.80
2016,05,31,06,20,9.80
2016,05,31,06,21,9.80
2016,05,31,06,22,9.80
2016,05,31,06,23,9.80
2016,05,31,06,24,9.80
2016,05,31,06,25,9.80
2016,05,31,06,26,9.90
2016,05,31,06,27,9.90
2016,05,31,06,28,9.90
2016,05,31,06,29,9.90
2016,05,31,06,30,9.90
2016,05,31,06,31,9.90
2016,05,31,06,32,9.90
2016,05,31,06,33,9.90
2016,05,31,06,34,9.90
2016,05,31,06,35,9.90
2016,05,31,06,36,9.90
2016,05,31,06,37,9.90
2016,05,31,06,38,10.00
2016,05,31,06,39,10.00
2016,05,31,06,40,10.00
2016,05,31,06,41,10.00
2016,05,31,06,42,10.00
2016,05,31,06,43,10.00
2016,05,31,06,44,10.00
2016,05,31,06,45,10.00
2016,05,31,06,46,10.00
2016,05,31,06,47,10.00
2016,05,31,06,48,10.10
2016,05,31,06,49,10.10
2016,05,31,06,50,10.10
2016,05,31,06,51,10.20
2016,05,31,06,52,10.20
2016,05,31,06,53,10.20
2016,05,31,06,54,10.20
2016,05,31,06,55,10.20
2016,05,31,06,56,10.30
2016,05,31,06,57,10.30
2016,05,31,06,58,10.30
2016,05,31,06,59,10.30
2016,05,31,07,00,10.40
2016,05,31,07,01,10.40
2016,05,31,07,02,10.40
2016,05,31,07,03,10.40
2016,05,31,07,04,10.50
2016,05,31,07,05,10.50
2016,05,31,07,06,10.60
2016,05,31,07,07,10.60
2016,05,31,07,08,10.60
2016,05,31,07,09,10.70
2016,05,31,07,10,10.70
2016,05,31,07,11,10.70
2016,05,31,07,12,10.70
2016,05,31,07,13,10.80
2016,05,31,07,14,10.80
2016,05,31,07,15,10.80
2016,05,31,07,16,10.80
2016,05,31,07,17,10.90
2016,05,31,07,18,10.90
2016,05,31,07,19,10.90
2016,05,31,07,20,10.90
2016,05,31,07,21,11.00
2016,05,31,07,22,11.00
2016,05,31,07,23,11.10
2016,05,31,07,24,11.10
2016,05,31,07,25,11.20
2016,05,31,07,26,11.20
2016,05,31,07,27,11.20
2016,05,31,07,28,11.20
2016,05,31,07,29,11.30
2016,05,31,07,30,11.30
2016,05,31,07,31,11.30
2016,05,31,07,32,11.40
2016,05,31,07,33,11.40
2016,05,31,07,34,11.40
2016,05,31,07,35,11.40
2016,05,31,07,36,11.50
2016,05,31,07,37,11.50
2016,05,31,07,38,11.60
2016,05,31,07,39,11.60
2016,05,31,07,40,11.60
2016,05,31,07,41,11.70
2016,05,31,07,42,11.70
2016,05,31,07,43,11.70
2016,05,31,07,44,11.80
2016,05,31,07,45,11.90
2016,05,31,07,46,11.90
2016,05,31,07,47,11.90
2016,05,31,07,48,12.00
2016,05,31,07,49,12.10
2016,05,31,07,50,12.10
2016,05,31,07,51,12.20
2016,05,31,07,52,12.30
2016,05,31,07,53,12.30
2016,05,31,07,54,12.30
2016,05,31,07,55,12.40
2016,05,31,07,56,12.40
2016,05,31,07,57,12.50
2016,05,31,07,58,12.50
2016,05,31,07,59,12.60
2016,05,31,08,00,12.60
2016,05,31,08,01,12.70
2016,05,31,08,02,12.70
2016,05,31,08,03,12.70
2016,05,31,08,04,12.80
2016,05,31,08,05,12.80
2016,05,31,08,06,12.90
2016,05,31,08,07,12.90
2016,05,31,08,08,13.00
2016,05,31,08,09,13.10
2016,05,31,08,10,13.20
2016,05,31,08,11,13.30
2016,05,31,08,12,13.30
2016,05,31,08,13,13.40
2016,05,31,08,14,13.50
2016,05,31,08,15,13.50
2016,05,31,08,16,13.60
2016,05,31,08,17,13.60
2016,05,31,08,18,13.70
2016,05,31,08,19,13.70
2016,05,31,08,20,13.80
2016,05,31,08,21,13.90
2016,05,31,08,22,14.00
2016,05,31,08,23,14.10
2016,05,31,08,24,14.20
2016,05,31,08,25,14.20
2016,05,31,08,26,14.30
2016,05,31,08,27,14.40
2016,05,31,08,28,14.60
2016,05,31,08,29,14.70
2016,05,31,08,30,14.80
2016,05,31,08,31,14.90
2016,05,31,08,32,14.90
2016,05,31,08,33,14.90
2016,05,31,08,34,15.00
2016,05,31,08,35,15.10
2016,05,31,08,36,15.10
2016,05,31,08,37,15.20
2016,05,31,08,38,15.30
2016,05,31,08,39,15.40
2016,05,31,08,40,15.50
2016,05,31,08,41,15.60
2016,05,31,08,42,15.60
2016,05,31,08,43,15.60
2016,05,31,08,44,15.70
2016,05,31,08,45,15.70
2016,05,31,08,46,15.70
2016,05,31,08,47,15.70
2016,05,31,08,48,15.70
2016,05,31,08,49,15.80
2016,05,31,08,50,15.80
2016,05,31,08,51,15.80
2016,05,31,08,52,15.80
2016,05,31,08,53,15.90
2016,05,31,08,54,15.90
2016,05,31,08,55,15.90
2016,05,31,08,56,15.90
2016,05,31,08,57,16.00
2016,05,31,08,58,16.10
2016,05,31,08,59,16.10
2016,05,31,09,00,16.10
2016,05,31,09,01,16.00
2016,05,31,09,02,16.00
2016,05,31,09,03,16.00
2016,05,31,09,04,16.00
2016,05,31,09,05,16.00
2016,05,31,09,06,16.00
2016,05,31,09,07,16.00
2016,05,31,09,08,16.00
2016,05,31,09,09,16.00
2016,05,31,09,10,16.00
2016,05,31,09,11,16.00
2016,05,31,09,12,16.00
2016,05,31,09,13,16.00
2016,05,31,09,14,16.00
2016,05,31,09,15,16.00
2016,05,31,09,16,15.90
2016,05,31,09,17,16.00
2016,05,31,09,18,16.00
2016,05,31,09,19,16.00
2016,05,31,09,20,16.00
2016,05,31,09,21,16.00
2016,05,31,09,22,16.10
2016,05,31,09,23,16.10
2016,05,31,09,24,16.10
2016,05,31,09,25,16.10
2016,05,31,09,26,16.10
2016,05,31,09,27,16.10
2016,05,31,09,28,16.10
2016,05,31,09,29,16.10
2016,05,31,09,30,16.20
2016,05,31,09,31,16.20
2016,05,31,09,32,16.20
2016,05,31,09,33,16.20
2016,05,31,09,34,16.30
2016,05,31,09,35,16.30
2016,05,31,09,36,16.30
2016,05,31,09,37,16.40
2016,05,31,09,38,16.40
2016,05,31,09,39,16.40
2016,05,31,09,40,16.50
2016,05,31,09,41,16.50
2016,05,31,09,42,16.50
2016,05,31,09,43,16.60
2016,05,31,09,44,16.70
2016,05,31,09,45,16.70
2016,05,31,09,46,16.80
2016,05,31,09,47,16.80
2016,05,31,09,48,16.80
2016,05,31,09,49,16.90
2016,05,31,09,50,16.90
2016,05,31,09,51,16.90
2016,05,31,09,52,16.90
2016,05,31,09,53,16.90
2016,05,31,09,54,17.00
2016,05,31,09,55,17.00
2016,05,31,09,56,17.00
2016,05,31,09,57,17.10
2016,05,31,09,58,17.10
2016,05,31,09,59,17.10
2016,05,31,10,00,17.10
2016,05,31,10,01,17.10
2016,05,31,10,02,17.10
2016,05,31,10,03,17.10
2016,05,31,10,04,17.10
2016,05,31,10,05,17.10
2016,05,31,10,06,17.10
2016,05,31,10,07,17.00
2016,05,31,10,08,17.10
2016,05,31,10,09,17.10
2016,05,31,10,10,17.20
2016,05,31,10,11,17.20
2016,05,31,10,12,17.30
2016,05,31,10,13,17.40
2016,05,31,10,14,17.50
2016,05,31,10,15,17.60
2016,05,31,10,16,17.70
2016,05,31,10,17,17.80
2016,05,31,10,18,17.80
2016,05,31,10,19,17.90
2016,05,31,10,20,18.00
2016,05,31,10,21,18.10
2016,05,31,10,22,18.20
2016,05,31,10,23,18.30
2016,05,31,10,24,18.40
2016,05,31,10,25,18.50
2016,05,31,10,26,18.60
2016,05,31,10,27,18.70
2016,05,31,10,28,18.80
2016,05,31,10,29,18.90
2016,05,31,10,30,19.00
2016,05,31,10,31,19.00
2016,05,31,10,32,19.10
2016,05,31,10,33,19.10
2016,05,31,10,34,19.20
2016,05,31,10,35,19.20
2016,05,31,10,36,19.30
2016,05,31,10,37,19.30
2016,05,31,10,38,19.40
2016,05,31,10,39,19.40
2016,05,31,10,40,19.40
2016,05,31,10,41,19.40
2016,05,31,10,42,19.40
2016,05,31,10,43,19.30
2016,05,31,10,44,19.30
2016,05,31,10,45,19.20
2016,05,31,10,46,19.10
2016,05,31,10,47,19.00
2016,05,31,10,48,18.90
2016,05,31,10,49,18.90
2016,05,31,10,50,18.80
2016,05,31,10,51,18.70
2016,05,31,10,52,18.70
2016,05,31,10,53,18.80
2016,05,31,10,54,18.80
2016,05,31,10,55,18.70
2016,05,31,10,56,18.70
2016,05,31,10,57,18.70
2016,05,31,10,58,18.70
2016,05,31,10,59,18.70
2016,05,31,11,00,18.80
2016,05,31,11,01,18.80
2016,05,31,11,02,18.80
2016,05,31,11,03,18.90
2016,05,31,11,04,18.90
2016,05,31,11,05,18.90
2016,05,31,11,06,18.90
2016,05,31,11,07,19.00
2016,05,31,11,08,19.10
2016,05,31,11,09,19.20
2016,05,31,11,10,19.20
2016,05,31,11,11,19.30
2016,05,31,11,12,19.30
2016,05,31,11,13,19.30
2016,05,31,11,14,19.40
2016,05,31,11,15,19.40
2016,05,31,11,16,19.40
2016,05,31,11,17,19.50
2016,05,31,11,18,19.50
2016,05,31,11,19,19.60
2016,05,31,11,20,19.60
2016,05,31,11,21,19.60
2016,05,31,11,22,19.60
2016,05,31,11,23,19.70
2016,05,31,11,24,19.70
2016,05,31,11,25,19.60
2016,05,31,11,26,19.60
2016,05,31,11,27,19.60
2016,05,31,11,28,19.60
2016,05,31,11,29,19.60
2016,05,31,11,30,19.60
2016,05,31,11,31,19.60
2016,05,31,11,32,19.60
2016,05,31,11,33,19.60
2016,05,31,11,34,19.60
2016,05,31,11,35,19.50
2016,05,31,11,36,19.40
2016,05,31,11,37,19.40
2016,05,31,11,38,19.40
2016,05,31,11,39,19.30
2016,05,31,11,40,19.30
2016,05,31,11,41,19.20
2016,05,31,11,42,19.20
2016,05,31,11,43,19.10
2016,05,31,11,44,19.10
2016,05,31,11,45,19.10
2016,05,31,11,46,19.10
2016,05,31,11,47,19.10
2016,05,31,11,48,19.10
2016,05,31,11,49,19.10
2016,05,31,11,50,19.10
2016,05,31,11,51,19.10
2016,05,31,11,52,19.10
2016,05,31,11,53,19.10
2016,05,31,11,54,19.10
2016,05,31,11,55,19.10
2016,05,31,11,56,19.10
2016,05,31,11,57,19.10
2016,05,31,11,58,19.10
2016,05,31,11,59,19.20
2016,05,31,12,00,19.20
2016,05,31,12,01,19.20
2016,05,31,12,02,19.20
2016,05,31,12,03,19.20
2016,05,31,12,04,19.20
2016,05,31,12,05,19.30
2016,05,31,12,06,19.30
2016,05,31,12,07,19.30
2016,05,31,12,08,19.30
2016,05,31,12,09,19.40
2016,05,31,12,10,19.40
2016,05,31,12,11,19.40
2016,05,31,12,12,19.40
2016,05,31,12,13,19.40
2016,05,31,12,14,19.40
2016,05,31,12,15,19.40
2016,05,31,12,16,19.40
2016,05,31,12,17,19.40
2016,05,31,12,18,19.40
2016,05,31,12,19,19.40
2016,05,31,12,20,19.40
2016,05,31,12,21,19.40
2016,05,31,12,22,19.40
2016,05,31,12,23,19.40
2016,05,31,12,24,19.40
2016,05,31,12,25,19.40
2016,05,31,12,26,19.50
2016,05,31,12,27,19.50
2016,05,31,12,28,19.50
2016,05,31,12,29,19.60
2016,05,31,12,30,19.60
2016,05,31,12,31,19.70
2016,05,31,12,32,19.80
2016,05,31,12,33,19.90
2016,05,31,12,34,20.10
2016,05,31,12,35,20.20
2016,05,31,12,36,20.30
2016,05,31,12,37,20.40
2016,05,31,12,38,20.60
2016,05,31,12,39,20.60
2016,05,31,12,40,20.70
2016,05,31,12,41,20.70
2016,05,31,12,42,20.80
2016,05,31,12,43,20.80
2016,05,31,12,44,20.80
2016,05,31,12,45,20.70
2016,05,31,12,46,20.70
2016,05,31,12,47,20.70
2016,05,31,12,48,20.60
2016,05,31,12,49,20.60
2016,05,31,12,50,20.60
2016,05,31,12,51,20.60
2016,05,31,12,52,20.60
2016,05,31,12,53,20.60
2016,05,31,12,54,20.60
2016,05,31,12,55,20.60
2016,05,31,12,56,20.60
2016,05,31,12,57,20.60
2016,05,31,12,58,20.60
2016,05,31,12,59,20.60
2016,05,31,13,00,20.50
2016,05,31,13,01,20.40
2016,05,31,13,02,20.40
2016,05,31,13,03,20.30
2016,05,31,13,04,20.20
2016,05,31,13,05,20.20
2016,05,31,13,06,20.20
2016,05,31,13,07,20.20
2016,05,31,13,08,20.20
2016,05,31,13,09,20.20
2016,05,31,13,10,20.20
2016,05,31,13,11,20.20
2016,05,31,13,12,20.20
2016,05,31,13,13,20.20
2016,05,31,13,14,20.30
2016,05,31,13,15,20.30
2016,05,31,13,16,20.30
2016,05,31,13,17,20.30
2016,05,31,13,18,20.40
2016,05,31,13,19,20.50
2016,05,31,13,20,20.60
2016,05,31,13,21,20.60
2016,05,31,13,22,20.60
2016,05,31,13,23,20.60
2016,05,31,13,24,20.70
2016,05,31,13,25,20.70
2016,05,31,13,26,20.70
2016,05,31,13,27,20.70
2016,05,31,13,28,20.70
2016,05,31,13,29,20.70
2016,05,31,13,30,20.70
2016,05,31,13,31,20.60
2016,05,31,13,32,20.60
2016,05,31,13,33,20.70
2016,05,31,13,34,20.70
2016,05,31,13,35,20.70
2016,05,31,13,36,20.60
2016,05,31,13,37,20.60
2016,05,31,13,38,20.60
2016,05,31,13,39,20.60
2016,05,31,13,40,20.60
2016,05,31,13,41,20.60
2016,05,31,13,42,20.60
2016,05,31,13,43,20.60
2016,05,31,13,44,20.60
2016,05,31,13,45,20.70
2016,05,31,13,46,20.70
2016,05,31,13,47,20.70
2016,05,31,13,48,20.70
2016,05,31,13,49,20.70
2016,05,31,13,50,20.60
2016,05,31,13,51,20.60
2016,05,31,13,52,20.60
2016,05,31,13,53,20.70
2016,05,31,13,54,20.70
2016,05,31,13,55,20.70
2016,05,31,13,56,20.70
2016,05,31,13,57,20.70
2016,05,31,13,58,20.70
2016,05,31,13,59,20.70
2016,05,31,14,00,20.60
2016,05,31,14,01,20.60
2016,05,31,14,02,20.60
2016,05,31,14,03,20.60
2016,05,31,14,04,20.70
2016,05,31,14,05,20.70
2016,05,31,14,06,20.70
2016,05,31,14,07,20.80
2016,05,31,14,08,20.80
2016,05,31,14,09,20.80
2016,05,31,14,10,20.80
2016,05,31,14,11,20.80
2016,05,31,14,12,20.90
2016,05,31,14,13,20.90
2016,05,31,14,14,21.00
2016,05,31,14,15,21.00
2016,05,31,14,16,21.10
2016,05,31,14,17,21.20
2016,05,31,14,18,21.30
2016,05,31,14,19,21.30
2016,05,31,14,20,21.40
2016,05,31,14,21,21.40
2016,05,31,14,22,21.40
2016,05,31,14,23,21.50
2016,05,31,14,24,21.50
2016,05,31,14,25,21.50
2016,05,31,14,26,21.50
2016,05,31,14,27,21.60
2016,05,31,14,28,21.60
2016,05,31,14,29,21.60
2016,05,31,14,30,21.60
2016,05,31,14,31,21.50
2016,05,31,14,32,21.50
2016,05,31,14,33,21.50
2016,05,31,14,34,21.40
2016,05,31,14,35,21.40
2016,05,31,14,36,21.30
2016,05,31,14,37,21.30
2016,05,31,14,38,21.30
2016,05,31,14,39,21.40
2016,05,31,14,40,21.40
2016,05,31,14,41,21.40
2016,05,31,14,42,21.40
2016,05,31,14,43,21.30
2016,05,31,14,44,21.30
2016,05,31,14,45,21.30
2016,05,31,14,46,21.30
2016,05,31,14,47,21.40
2016,05,31,14,48,21.40
2016,05,31,14,49,21.40
2016,05,31,14,50,21.50
2016,05,31,14,51,21.50
2016,05,31,14,52,21.60
2016,05,31,14,53,21.60
2016,05,31,14,54,21.70
2016,05,31,14,55,21.70
2016,05,31,14,56,21.70
2016,05,31,14,57,21.70
2016,05,31,14,58,21.70
2016,05,31,14,59,21.80
2016,05,31,15,00,21.80
2016,05,31,15,01,21.80
2016,05,31,15,02,21.80
2016,05,31,15,03,21.80
2016,05,31,15,04,21.90
2016,05,31,15,05,21.90
2016,05,31,15,06,21.90
2016,05,31,15,07,21.90
2016,05,31,15,08,21.90
2016,05,31,15,09,21.90
2016,05,31,15,10,21.90
2016,05,31,15,11,21.90
2016,05,31,15,12,21.90
2016,05,31,15,13,22.00
2016,05,31,15,14,22.00
2016,05,31,15,15,22.10
2016,05,31,15,16,22.10
2016,05,31,15,17,22.10
2016,05,31,15,18,22.00
2016,05,31,15,19,22.00
2016,05,31,15,20,21.90
2016,05,31,15,21,21.90
2016,05,31,15,22,21.80
2016,05,31,15,23,21.70
2016,05,31,15,24,21.60
2016,05,31,15,25,21.50
2016,05,31,15,26,21.50
2016,05,31,15,27,21.40
2016,05,31,15,28,21.40
2016,05,31,15,29,21.30
2016,05,31,15,30,21.30
2016,05,31,15,31,21.30
2016,05,31,15,32,21.20
2016,05,31,15,33,21.20
2016,05,31,15,34,21.20
2016,05,31,15,35,21.20
2016,05,31,15,36,21.10
2016,05,31,15,37,21.10
2016,05,31,15,38,21.10
2016,05,31,15,39,21.10
2016,05,31,15,40,21.00
2016,05,31,15,41,21.00
2016,05,31,15,42,21.00
2016,05,31,15,43,21.00
2016,05,31,15,44,21.00
2016,05,31,15,45,21.00
2016,05,31,15,46,21.00
2016,05,31,15,47,21.00
2016,05,31,15,48,20.90
2016,05,31,15,49,20.90
2016,05,31,15,50,20.90
2016,05,31,15,51,20.90
2016,05,31,15,52,20.80
2016,05,31,15,53,20.80
2016,05,31,15,54,20.90
2016,05,31,15,55,20.80
2016,05,31,15,56,20.90
2016,05,31,15,57,20.90
2016,05,31,15,58,20.90
2016,05,31,15,59,20.90
2016,05,31,16,00,21.00
2016,05,31,16,01,21.00
2016,05,31,16,02,21.10
2016,05,31,16,03,21.10
2016,05,31,16,04,21.10
2016,05,31,16,05,21.10
2016,05,31,16,06,21.10
2016,05,31,16,07,21.10
2016,05,31,16,08,21.10
2016,05,31,16,09,21.10
2016,05,31,16,10,21.10
2016,05,31,16,11,21.10
2016,05,31,16,12,21.00
2016,05,31,16,13,21.00
2016,05,31,16,14,20.90
2016,05,31,16,15,20.80
2016,05,31,16,16,20.80
2016,05,31,16,17,20.80
2016,05,31,16,18,20.70
2016,05,31,16,19,20.70
2016,05,31,16,20,20.80
2016,05,31,16,21,20.80
2016,05,31,16,22,20.80
2016,05,31,16,23,20.90
2016,05,31,16,24,21.00
2016,05,31,16,25,21.00
2016,05,31,16,26,21.10
2016,05,31,16,27,21.10
2016,05,31,16,28,21.20
2016,05,31,16,29,21.20
2016,05,31,16,30,21.20
2016,05,31,16,31,21.30
2016,05,31,16,32,21.30
2016,05,31,16,33,21.30
2016,05,31,16,34,21.30
2016,05,31,16,35,21.30
2016,05,31,16,36,21.30
2016,05,31,16,37,21.20
2016,05,31,16,38,21.20
2016,05,31,16,39,21.30
2016,05,31,16,40,21.30
2016,05,31,16,41,21.30
2016,05,31,16,42,21.40
2016,05,31,16,43,21.40
2016,05,31,16,44,21.40
2016,05,31,16,45,21.50
2016,05,31,16,46,21.50
2016,05,31,16,47,21.60
2016,05,31,16,48,21.60
2016,05,31,16,49,21.60
2016,05,31,16,50,21.70
2016,05,31,16,51,21.70
2016,05,31,16,52,21.80
2016,05,31,16,53,21.80
2016,05,31,16,54,21.80
2016,05,31,16,55,21.80
2016,05,31,16,56,21.80
2016,05,31,16,57,21.80
2016,05,31,16,58,21.80
2016,05,31,16,59,21.80
2016,05,31,17,00,21.80
2016,05,31,17,01,21.80
2016,05,31,17,02,21.80
2016,05,31,17,03,21.70
2016,05,31,17,04,21.60
2016,05,31,17,05,21.60
2016,05,31,17,06,21.50
2016,05,31,17,07,21.50
2016,05,31,17,08,21.40
2016,05,31,17,09,21.40
2016,05,31,17,10,21.40
2016,05,31,17,11,21.40
2016,05,31,17,12,21.40
2016,05,31,17,13,21.40
2016,05,31,17,14,21.40
2016,05,31,17,15,21.40
2016,05,31,17,16,21.40
2016,05,31,17,17,21.30
2016,05,31,17,18,21.30
2016,05,31,17,19,21.30
2016,05,31,17,20,21.30
2016,05,31,17,21,21.30
2016,05,31,17,22,21.30
2016,05,31,17,23,21.30
2016,05,31,17,24,21.20
2016,05,31,17,25,21.20
2016,05,31,17,26,21.30